User: anonymous   Login
Location: Stockholm
(59.3333°N, 18.0500°E)
Time: 19:09:34
(UTC+02:00)
Language:

ISS - Orbit

View from above orbital plane
View from above orbital plane
View from above satellite
View from above satellite

Ground track
Ground track

The orbit data is extracted from the following two-line orbital elements,

1 25544U 98067A   21216.55212500  .00001287  00000-0  31626-4 0  9992
2 25544  51.6441 103.5508 0001191 246.5724 171.7097 15.48871663296094
Epoch (UTC): 04 August 2021 13:15:03
Eccentricity: 0.0001191
inclination: 51.6441°
perigee height: 419 km
apogee height: 421 km
right ascension of ascending node: 103.5508°
argument of perigee: 246.5724°
revolutions per day: 15.48871663
mean anomaly at epoch: 171.7097°
orbit number at epoch: 29609

The dashed part of the orbit path shows where the satellite is in the earth's shadow,  

DLR